JA3VQW-13 Weather Reports


time (UTC)temp
C
wind
direction
speed
KPH
gust
KPH
rain 1hr
cm
rain 24hr
cm
rain mn
cm
humidity
%
barometer
mb
20260906044631 28 0 0.0 4.8 0.00 0.00 0.00 36 997.0
20260906043056 28 0 0.0 3.2 0.00 0.00 0.00 34 997.0
20260906041631 28 0 0.0 4.8 0.00 0.00 0.00 34 998.0
20260906041556 28 0 0.0 4.8 0.00 0.00 0.00 34 998.0
20260906034632 28 0 0.0 0.0 0.00 0.00 0.00 32 998.0
20260906031631 29 0 0.0 0.0 0.00 0.00 0.00 31 998.0
20260906024632 29 270 0.0 0.0 0.00 0.00 0.00 31 998.0
20260906021632 30 270 0.0 0.0 0.00 0.00 0.00 31 998.0
20260906014632 29 180 0.0 0.0 0.00 0.00 0.00 32 999.0
20260906011631 29 180 0.0 0.0 0.00 0.00 0.00 32 999.0
20260906004631 28 135 0.0 3.2 0.00 0.00 0.00 36 999.0
20260906004556 28 135 0.0 3.2 0.00 0.00 0.00 36 999.0
20260906001631 27 315 0.0 0.0 0.00 0.00 0.00 39 1000.0
20260906001558 27 315 0.0 0.0 0.00 0.00 0.00 39 1000.0
20260905234632 27 315 0.0 0.0 0.00 0.00 0.00 40 1000.0
20260905234555 27 315 0.0 0.0 0.00 0.00 0.00 41 1000.0
20260905233055 27 225 0.0 0.0 0.00 0.00 0.00 42 1000.0
20260905231631 26 225 0.0 0.0 0.00 0.00 0.00 44 1000.0
20260905231556 26 225 0.0 0.0 0.00 0.00 0.00 44 1000.0
20260905224631 25 225 0.0 0.0 0.00 0.00 0.00 47 1000.0
20260905223056 25 225 0.0 0.0 0.00 0.00 0.00 46 1000.0
20260905221632 25 225 0.0 0.0 0.00 0.00 0.00 46 1000.0
20260905221555 25 225 0.0 0.0 0.00 0.00 0.00 46 1000.0
20260905220056 25 225 0.0 0.0 0.00 0.00 0.00 46 1000.0
20260905214631 25 225 0.0 0.0 0.00 0.00 0.00 45 1000.0
20260905211630 25 225 0.0 0.0 0.00 0.00 0.00 45 1000.0
20260905211555 25 225 0.0 0.0 0.00 0.00 0.00 45 1000.0
20260905210054 25 225 0.0 0.0 0.00 0.00 0.00 44 999.0
20260905204631 25 225 0.0 0.0 0.00 0.00 0.00 43 1000.0
20260905204556 25 225 0.0 0.0 0.00 0.00 0.00 43 1000.0
20260905203056 25 225 0.0 0.0 0.00 0.00 0.00 43 999.0
20260905201631 25 225 0.0 0.0 0.00 0.00 0.00 42 1000.0
20260905201556 25 225 0.0 0.0 0.00 0.00 0.00 42 1000.0
20260905200055 25 225 0.0 0.0 0.00 0.00 0.00 42 999.0
20260905194630 25 225 0.0 0.0 0.00 0.00 0.00 41 1000.0
20260905194555 25 225 0.0 0.0 0.00 0.00 0.00 41 1000.0
20260905193055 25 225 0.0 0.0 0.00 0.00 0.00 41 1000.0
20260905191630 25 225 0.0 0.0 0.00 0.00 0.00 41 1000.0
20260905184632 25 225 0.0 0.0 0.00 0.00 0.00 41 1000.0
20260905181631 25 225 0.0 0.0 0.00 0.00 0.00 42 1001.0
20260905181556 25 225 0.0 0.0 0.00 0.00 0.00 42 1001.0
20260905174631 25 0 0.0 3.2 0.00 0.00 0.00 45 1001.0
20260905171630 25 0 0.0 0.0 0.00 0.00 0.00 45 1001.0
20260905171555 25 0 0.0 0.0 0.00 0.00 0.00 45 1001.0
20260905164630 25 270 0.0 0.0 0.00 0.00 0.00 46 1001.0
20260905164555 25 270 0.0 0.0 0.00 0.00 0.00 46 1001.0
20260905163055 25 270 0.0 0.0 0.00 0.00 0.00 46 1001.0
20260905161631 25 270 0.0 0.0 0.00 0.00 0.00 47 1001.0
20260905154631 25 270 0.0 0.0 0.00 0.00 0.00 46 1001.0
20260905154554 25 270 0.0 0.0 0.00 0.00 0.00 46 1001.0
20260905151631 25 270 0.0 0.0 0.00 0.00 0.00 45 1001.0
20260905151554 25 270 0.0 0.0 0.00 0.00 0.00 45 1001.0
20260905150056 25 270 0.0 0.0 0.00 0.00 0.00 44 1001.0
20260905144629 25 270 0.0 0.0 0.00 0.00 0.00 44 1002.0
20260905141631 25 270 0.0 0.0 0.00 0.00 0.00 45 1001.0
20260905140055 25 270 0.0 0.0 0.00 0.10 0.00 45 1001.0
20260905134631 25 270 0.0 0.0 0.00 0.10 0.00 45 1002.0
20260905131630 26 270 0.0 3.2 0.00 0.10 0.00 44 1002.0
20260905131553 26 270 0.0 0.0 0.00 0.10 0.00 44 1002.0
20260905124630 26 315 0.0 0.0 0.00 0.10 0.00 42 1002.0
20260905121630 26 315 0.0 0.0 0.00 0.10 0.00 40 1002.0
20260905121555 26 315 0.0 0.0 0.00 0.10 0.00 40 1002.0
20260905120055 26 315 0.0 0.0 0.00 0.10 0.00 39 1002.0
20260905114630 26 315 0.0 0.0 0.00 0.10 0.00 39 1002.0
20260905111629 26 270 0.0 0.0 0.00 0.10 0.00 42 1002.0
20260905104629 26 270 0.0 0.0 0.00 0.10 0.00 43 1002.0
20260905103054 27 270 0.0 0.0 0.00 0.10 0.00 42 1001.0
20260905101631 27 270 0.0 0.0 0.00 0.10 0.00 41 1001.0
20260905100053 27 270 0.0 0.0 0.00 0.10 0.00 40 1001.0
20260905094629 27 270 0.0 0.0 0.00 0.10 0.00 39 1001.0
20260905094554 27 270 0.0 0.0 0.00 0.10 0.00 39 1001.0
20260905093053 27 270 0.0 0.0 0.00 0.10 0.00 39 1001.0
20260905091634 28 270 0.0 0.0 0.00 0.10 0.00 38 1001.0
20260905091557 28 270 0.0 0.0 0.00 0.10 0.00 38 1001.0
20260905090057 28 270 0.0 0.0 0.00 0.10 0.00 36 1000.0
20260905084634 28 270 0.0 0.0 0.00 0.20 0.00 33 1001.0
20260905084557 28 270 0.0 0.0 0.00 0.20 0.00 33 1001.0
20260905083057 28 270 0.0 0.0 0.00 0.20 0.00 35 1000.0
20260905081633 29 270 0.0 0.0 0.00 0.20 0.00 35 1000.0
20260905081556 29 270 0.0 0.0 0.00 0.20 0.00 35 1000.0
20260905080058 29 270 0.0 0.0 0.00 0.20 0.00 35 1000.0
20260905074633 30 270 0.0 0.0 0.00 0.20 0.00 34 1000.0
20260905074557 30 270 0.0 0.0 0.00 0.20 0.00 33 1000.0
20260905073058 30 270 0.0 0.0 0.00 0.20 0.00 33 1000.0
20260905071633 30 270 0.0 0.0 0.00 0.30 0.00 33 1000.0
20260905071557 30 270 0.0 0.0 0.00 0.30 0.00 32 1000.0
20260905070057 31 270 0.0 0.0 0.00 0.30 0.00 29 1000.0
20260905064632 31 270 0.0 0.0 0.00 0.30 0.00 28 1000.0
20260905064558 31 270 0.0 0.0 0.00 0.30 0.00 28 1000.0
20260905061634 31 270 0.0 0.0 0.00 0.30 0.00 28 1000.0
20260905061557 32 270 0.0 0.0 0.00 0.30 0.00 27 1000.0
20260905060057 32 270 0.0 0.0 0.00 0.30 0.00 25 1000.0
20260905054634 32 270 0.0 0.0 0.00 0.30 0.00 23 1000.0
20260905054556 32 270 0.0 0.0 0.00 0.30 0.00 23 1000.0
20260905053056 32 270 0.0 0.0 0.00 0.30 0.00 25 1000.0
20260905051633 32 270 0.0 0.0 0.00 0.30 0.00 22 1000.0